Weather History for Mojave, CA

Change the Weather History Date:

Sunday, March 16, 2014

  Actual Average Record
Temperature  
Mean Temperature 60 °F -  
Max Temperature 77 °F 65 °F 89 °F (2007)
Min Temperature 44 °F 39 °F 28 °F (1991)
Degree Days  
Heating Degree Days 4    
Growing Degree Days 10 (Base 50)    
Moisture  
Dew Point 28 °F    
Average Humidity 29    
Maximum Humidity 53    
Minimum Humidity 11    
Precipitation  
Precipitation 0.00 in - - ()
Sea Level Pressure  
Sea Level Pressure 30.28 in    
Wind  
Wind Speed 7 mph (West)    
Max Wind Speed 28 mph    
Max Gust Speed 37 mph    
Visibility 10 miles    
Events      
Averages and records for this station are not official NWS values.
T = Trace of Precipitation, MM = Missing Value Source: NWS Daily Summary

Daily Weather History Graph

Daily Weather History Graph

Search for Another Location

Airport:

Trip Planner

Search our weather history database for the weather conditions in past years. The results will help you decide how hot, cold, wet, or windy it might be!

Date:

Astronomy

Mar. 16, 2014 Rise Set
Actual Time 7:01 AM PDT 7:01 PM PDT
Civil Twilight 6:36 AM PDT 7:26 PM PDT
Nautical Twilight 6:07 AM PDT 7:55 PM PDT
Astronomical Twilight 5:37 AM PDT 8:25 PM PDT
Moon 7:21 PM PDT (3/16) 6:48 AM PDT (3/16)
Length of Visible Light 12h 49m
Length of Day
11h 59m
Full, 100% of the Moon is Illuminated
Mar 16
Full
Mar 23
Last Quarter
Mar 30
New
Apr 7
First Quarter
Apr 15
Full

Hourly Weather History & Observations

Time (PDT) Temp. Windchill Dew Point Humidity Pressure Visibility Wind Dir Wind Speed Gust Speed Precip Events Conditions
12:15 AM 57.2 °F - 32.0 °F 38% 30.33 in 10.0 mi NW 9.2 mph - N/A   Clear
12:35 AM 57.2 °F - 32.0 °F 38% 30.33 in 10.0 mi NW 9.2 mph - N/A   Clear
12:55 AM 57.2 °F - 30.2 °F 36% 30.33 in 10.0 mi NW 9.2 mph - N/A   Clear
1:15 AM 55.4 °F - 30.2 °F 38% 30.33 in 10.0 mi NW 8.1 mph - N/A   Clear
1:35 AM 55.4 °F - 30.2 °F 38% 30.33 in 10.0 mi Calm Calm - N/A   Clear
1:55 AM 55.4 °F - 28.4 °F 36% 30.34 in 10.0 mi Calm Calm - N/A   Clear
2:15 AM 53.6 °F - 32.0 °F 44% 30.34 in 10.0 mi Calm Calm - N/A   Clear
2:35 AM 50.0 °F - 32.0 °F 50% 30.34 in 10.0 mi NW 5.8 mph - N/A   Clear
2:55 AM 50.0 °F - 30.2 °F 47% 30.34 in 10.0 mi NW 5.8 mph - N/A   Clear
3:15 AM 48.2 °F - 28.4 °F 46% 30.34 in 10.0 mi North 4.6 mph - N/A   Clear
3:35 AM 48.2 °F - 28.4 °F 46% 30.33 in 10.0 mi NW 4.6 mph - N/A   Clear
3:50 AM 48.2 °F - 28.4 °F 46% 30.32 in 10.0 mi NNW 5.8 mph - N/A   Clear
4:15 AM 50.0 °F - 30.2 °F 47% 30.32 in 10.0 mi NNW 5.8 mph - N/A   Clear
4:35 AM 48.2 °F - 28.4 °F 46% 30.32 in 10.0 mi Calm Calm - N/A   Clear
4:55 AM 50.0 °F - 28.4 °F 43% 30.32 in 10.0 mi Calm Calm - N/A   Clear
5:15 AM 50.0 °F - 28.4 °F 43% 30.33 in 10.0 mi Calm Calm - N/A   Clear
5:35 AM 48.2 °F - 28.4 °F 46% 30.34 in 10.0 mi Calm Calm - N/A   Clear
5:55 AM 46.4 °F - 28.4 °F 50% 30.34 in 10.0 mi Calm Calm - N/A   Clear
6:05 AM 46.4 °F - 28.4 °F 50% 30.35 in 10.0 mi Calm Calm - N/A   Clear
6:35 AM 48.2 °F - 28.4 °F 46% 30.35 in 9.0 mi North 4.6 mph - N/A   Clear
7:15 AM 44.6 °F 41.4 °F 28.4 °F 53% 30.35 in 10.0 mi NW 5.8 mph - N/A   Clear
7:35 AM 48.2 °F - 28.4 °F 46% 30.36 in 10.0 mi NNW 8.1 mph - N/A   Clear
7:55 AM 50.0 °F - 28.4 °F 43% 30.37 in 10.0 mi NNW 5.8 mph - N/A   Clear
8:10 AM 53.6 °F - 30.2 °F 41% 30.37 in 10.0 mi Calm Calm - N/A   Clear
9:15 AM 62.6 °F - 32.0 °F 32% 30.37 in 10.0 mi Calm Calm - N/A   Clear
9:35 AM 64.4 °F - 32.0 °F 30% 30.38 in 10.0 mi Calm Calm - N/A   Clear
9:55 AM 64.4 °F - 32.0 °F 30% 30.38 in 10.0 mi SE 3.5 mph - N/A   Clear
10:05 AM 64.4 °F - 32.0 °F 30% 30.38 in 10.0 mi SE 4.6 mph - N/A   Clear
10:35 AM 66.2 °F - 32.0 °F 28% 30.38 in 10.0 mi Calm Calm - N/A   Clear
10:55 AM 66.2 °F - 32.0 °F 28% 30.37 in 10.0 mi ESE 3.5 mph - N/A   Clear
11:15 AM 68.0 °F - 30.2 °F 24% 30.37 in 10.0 mi ESE 5.8 mph - N/A   Clear
11:35 AM 69.8 °F - 28.4 °F 21% 30.37 in 10.0 mi SSE 5.8 mph - N/A   Clear
11:55 AM 71.6 °F - 26.6 °F 19% 30.36 in 10.0 mi Calm Calm - N/A   Clear
12:15 PM 71.6 °F - 23.0 °F 16% 30.35 in 10.0 mi Calm Calm - N/A   Clear
12:35 PM 71.6 °F - 21.2 °F 15% 30.35 in 10.0 mi Calm Calm - N/A   Clear
12:55 PM 73.4 °F - 17.6 °F 12% 30.34 in 10.0 mi Calm Calm - N/A   Clear
1:15 PM 73.4 °F - 15.8 °F 11% 30.33 in 10.0 mi ESE 3.5 mph - N/A   Clear
1:35 PM 73.4 °F - 19.4 °F 13% 30.31 in 10.0 mi Calm Calm - N/A   Clear
1:55 PM 73.4 °F - 23.0 °F 15% 30.30 in 10.0 mi South 6.9 mph - N/A   Clear
2:15 PM 75.2 °F - 21.2 °F 13% 30.29 in 10.0 mi SW 3.5 mph - N/A   Clear
2:35 PM 75.2 °F - 19.4 °F 12% 30.28 in 10.0 mi South 4.6 mph - N/A   Clear
2:55 PM 77.0 °F - 19.4 °F 12% 30.27 in 10.0 mi SSE 4.6 mph - N/A   Clear
3:15 PM 77.0 °F - 17.6 °F 11% 30.26 in 10.0 mi South 5.8 mph - N/A   Clear
3:35 PM 77.0 °F - 17.6 °F 11% 30.25 in 10.0 mi South 5.8 mph - N/A   Clear
3:55 PM 77.0 °F - 17.6 °F 11% 30.23 in 10.0 mi South 11.5 mph - N/A   Clear
4:15 PM 77.0 °F - 17.6 °F 11% 30.22 in 10.0 mi SSE 4.6 mph - N/A   Clear
4:35 PM 77.0 °F - 17.6 °F 11% 30.21 in 10.0 mi South 10.4 mph - N/A   Clear
4:55 PM 77.0 °F - 17.6 °F 11% 30.20 in 10.0 mi SSW 10.4 mph 16.1 mph N/A   Clear
5:15 PM 77.0 °F - 17.6 °F 11% 30.19 in 10.0 mi SSW 11.5 mph - N/A   Clear
5:35 PM 77.0 °F - 19.4 °F 12% 30.18 in 10.0 mi SW 10.4 mph - N/A   Clear
5:55 PM 77.0 °F - 23.0 °F 13% 30.18 in 10.0 mi West 16.1 mph - N/A   Clear
6:15 PM 75.2 °F - 26.6 °F 17% 30.18 in 10.0 mi West 13.8 mph - N/A   Clear
6:30 PM 75.2 °F - 28.4 °F 18% 30.19 in 10.0 mi West 17.3 mph - N/A   Clear
6:50 PM 73.4 °F - 32.0 °F 22% 30.19 in 10.0 mi West 13.8 mph - N/A   Clear
7:05 PM 71.6 °F - 32.0 °F 23% 30.18 in 10.0 mi West 12.7 mph - N/A   Clear
7:35 PM 68.0 °F - 35.6 °F 30% 30.17 in 10.0 mi SW 17.3 mph - N/A   Clear
7:40 PM 68.0 °F - 35.6 °F 30% 30.17 in 10.0 mi SW 17.3 mph 21.9 mph N/A   Clear
8:15 PM 68.0 °F - 35.6 °F 30% 30.17 in 10.0 mi West 18.4 mph 21.9 mph N/A   Clear
8:35 PM 68.0 °F - 35.6 °F 30% 30.16 in 10.0 mi WNW 24.2 mph 28.8 mph N/A   Clear
8:50 PM 68.0 °F - 33.8 °F 28% 30.16 in 10.0 mi WNW 25.3 mph 32.2 mph N/A   Clear
9:00 PM 68.0 °F - 33.8 °F 28% 30.17 in 10.0 mi West 24.2 mph 33.4 mph N/A   Clear
9:30 PM 66.2 °F - 32.0 °F 28% 30.16 in 10.0 mi West 27.6 mph 32.2 mph N/A   Clear
9:50 PM 66.2 °F - 35.6 °F 32% 30.16 in 10.0 mi West 24.2 mph 36.8 mph N/A   Clear
10:15 PM 66.2 °F - 35.6 °F 32% 30.17 in 10.0 mi West 13.8 mph 29.9 mph N/A   Clear
10:35 PM 66.2 °F - 35.6 °F 32% 30.17 in 10.0 mi West 12.7 mph - N/A   Clear
10:50 PM 66.2 °F - 32.0 °F 28% 30.16 in 10.0 mi West 17.3 mph 24.2 mph N/A   Clear
11:15 PM 66.2 °F - 32.0 °F 28% 30.15 in 10.0 mi West 23.0 mph 26.5 mph N/A   Clear
11:35 PM 66.2 °F - 32.0 °F 28% 30.15 in 10.0 mi West 19.6 mph - N/A   Clear
11:55 PM 66.2 °F - 32.0 °F 28% 30.14 in 10.0 mi West 21.9 mph 31.1 mph N/A   Clear